sat.trackr.live / text

‹ back to catalog

AEROCUBE 8C

NORAD 41853 · 2016-067F

PAYLOAD ACTIVE UNKNOWN

§ Identity

Operator
Country
US
Launch date
2016-11-11
Launch site
AFWTR
Launch vehicle
Mass (kg)
RCS (m²)
0.05

Purposes: tech_demo

External: N2YO · Heavens-Above · Gunter

§ Orbital elements

Epoch: 2026-09-20T02:38:39.966720Z

Period
94.38 min
Inclination
98.0391°
Eccentricity
0.0006655
Mean motion
15.25809784 rev/d
Perigee alt
483.8 km
Apogee alt
492.9 km
Semi-major
6,866.5 km
B*
1.9229e-4
RAAN
137.6182°
Arg perigee
90.9925°
Mean anomaly
269.2074°
Rev number
54,053

§ Raw data

AEROCUBE 8C1 41853U 16067F   26263.11018480  .00004835  00000+0  19229-3 0  99982 41853  98.0391 137.6182 0006655  90.9925 269.2074 15.25809784540533

JSON: /api/v1/satellites/41853 · /tle

For live sub-satellite position, see the globe view (requires WebGL).

§ Visibility from observer

Set your observer location to see the next 7 days of passes ≥ 10°. The values pass through the URL so the page stays shareable.

No JS? Fill the form by hand. The geolocation button needs JavaScript.